Terminal Aerodrome Forecast
Issued by NWS Wilmington, NC

Home | Current Version | Previous Version | Text Only | Print | Product List | Glossary On
Versions: 1 2 3 4 5 6 7 8 9 10 11 12 13 14 15 16
000
FTUS42 KILM 260535
TAFILM
TAF
KILM 260535Z 2606/2706 29004KT P6SM VCSH BKN020
     FM260800 32004KT 5SM BR OVC004
     FM261400 29007KT P6SM VCSH BKN008 BKN020
     FM261800 35010KT P6SM VCSH SCT025 BKN050
     FM270000 01009KT P6SM OVC007=

USA.gov is the U.S. government's official web portal to all federal, state and local government web resources and services.